Flag for Switzerland Weather past 2 weeks in Muttenz, Basel-Land, Switzerland

Now
52 °F

Scattered clouds.


Feels Like: 51 °F
Forecast: 32 / 53 °F
Wind: 5 mph from Southwest

Location: Bale-Mulhouse

Current Time: Oct 23, 2014 at 11:50:47 AM

Latest Report: Oct 23, 2014 at 11:30 AM


Visibility: N/A

Pressure: 30.30 "Hg

Humidity: 72%

Dew point: 43 °F

Location of MuttenzLocation

Historic Weather in Muttenz — Graph

°F

Muttenz temperature yesterday

Maximum temperature yesterday: 50 °F (at 4:30 PM)
Minimum temperature yesterday: 41 °F (at 4:00 AM)
Average temperature yesterday: 46 °F

Past Weeks' High & Low Weather Summary

 TemperatureHumidityPressure
High75 °F (Oct 18, 4:30 PM)100% (Oct 9, 5:00 AM)30.30 "Hg (Oct 9, 5:00 AM)
Low41 °F (Oct 22, 4:00 AM)50% (Oct 14, 3:30 PM)29.74 "Hg (Oct 13, 5:00 AM)
Average59 °F86%29.97 "Hg
* Reported Oct 8 10:00 AM — Oct 23 10:30 AM, Muttenz, Weather by CustomWeather, © 2014

Note: Actual official high and low records may vary slightly from our data, if they occured in-between our weather recording intervals... More about our weather records

Advertising

Muttenz weather history for previous 24 hours

 ConditionsComfort  
Time TempWeatherWind HumidityBarometerVisibility
10:30 AM
Oct 23
48 °FBroken clouds.3 mph82%30.30 "HgN/A
10:00 AM48 °FBroken clouds.2 mph87%30.30 "HgN/A
9:30 AM46 °FPartly sunny.3 mph87%30.30 "HgN/A
9:00 AM45 °FPartly sunny.2 mph93%30.30 "HgN/A
8:30 AM45 °FPassing clouds.3 mph93%30.30 "HgN/A
8:00 AM46 °FLight rain. Partly cloudy.2 mph87%30.27 "HgN/A
7:30 AM46 °FPassing clouds.3 mph87%30.27 "HgN/A
7:00 AM46 °FPassing clouds.5 mph87%30.27 "HgN/A
6:30 AM46 °FPassing clouds.9 mph82%30.27 "HgN/A
6:00 AM46 °FPassing clouds.10 mph87%30.27 "HgN/A
5:30 AM46 °FPassing clouds.12 mph82%30.27 "HgN/A
5:00 AM46 °FPassing clouds.9 mph87%30.27 "HgN/A
4:30 AM46 °FPassing clouds.10 mph82%30.27 "HgN/A
4:00 AM46 °FLight rain. Mostly cloudy.10 mph87%30.27 "HgN/A
3:30 AM46 °FOvercast.12 mph82%30.27 "HgN/A
3:00 AM46 °FOvercast.10 mph82%30.27 "HgN/A
2:30 AM46 °FClear.12 mph87%30.27 "HgN/A
2:00 AM46 °FClear.13 mph87%30.24 "HgN/A
1:30 AM46 °FClear.13 mph87%30.24 "HgN/A
1:00 AM46 °FOvercast.14 mph87%30.24 "HgN/A
12:30 AM46 °FLight rain. Partly cloudy.15 mph82%30.24 "HgN/A
12:00 AM46 °FPartly cloudy.15 mph82%30.24 "HgN/A
11:30 PM
Oct 22
46 °FPartly cloudy.15 mph82%30.24 "HgN/A
11:00 PM46 °FPartly cloudy.13 mph76%30.24 "HgN/A
10:30 PM46 °FPassing clouds.15 mph76%30.24 "HgN/A
10:00 PM46 °FPassing clouds.14 mph76%30.24 "HgN/A
9:30 PM46 °FPassing clouds.15 mph76%30.21 "HgN/A
9:00 PM46 °FPassing clouds.13 mph76%30.21 "HgN/A
8:30 PM46 °FPassing clouds.14 mph76%30.24 "HgN/A
8:00 PM46 °FPassing clouds.13 mph76%30.21 "HgN/A
7:30 PM46 °FPassing clouds.8 mph76%30.21 "HgN/A
7:00 PM46 °FPartly sunny.6 mph76%30.21 "HgN/A
6:30 PM46 °FPartly sunny.6 mph76%30.21 "HgN/A
6:00 PM48 °FPartly sunny.8 mph71%30.18 "HgN/A
5:30 PM48 °FPartly sunny.12 mph71%30.18 "HgN/A
5:00 PM48 °FScattered showers. Partly sunny.12 mph71%30.18 "HgN/A
4:30 PM50 °FPartly sunny.13 mph67%30.21 "HgN/A
4:09 PM48 °FPartly sunny.14 mph71%30.21 "HgN/A
4:00 PM48 °FPartly sunny.14 mph71%30.21 "HgN/A
3:30 PM48 °FScattered showers. Broken clouds.15 mph71%30.21 "HgN/A
3:00 PM48 °FBroken clouds.12 mph66%30.21 "HgN/A
2:30 PM48 °FBroken clouds.10 mph66%30.21 "HgN/A
2:00 PM48 °FPartly sunny.13 mph66%30.21 "HgN/A
1:30 PM46 °FPartly sunny.13 mph71%30.21 "HgN/A
1:00 PM46 °FPartly sunny.13 mph71%30.21 "HgN/A
12:30 PM46 °FPartly sunny.13 mph71%30.21 "HgN/A
12:00 PM48 °FPartly sunny.10 mph82%30.21 "HgN/A
11:30 AM45 °FPartly sunny.9 mph87%30.21 "HgN/A
11:00 AM45 °FSprinkles. Broken clouds.8 mph87%30.21 "HgN/A
Weather by CustomWeather, © 2014

See weather overviewHow to use our weather pages